TimeCDT,TemperatureF,Dew PointF,Humidity,Sea Level PressureIn,VisibilityMPH,Wind Direction,Wind SpeedMPH,Gust SpeedMPH,PrecipitationIn,Events,Conditions,WindDirDegrees,DateUTC
12:15 AM,66.9,52.9,61,30.09,10.0,North,9.2,-,N/A,,Clear,10,2013-06-13 05:15:00
12:35 AM,66.0,52.7,62,30.10,10.0,North,9.2,-,N/A,,Clear,10,2013-06-13 05:35:00
12:55 AM,65.3,52.7,64,30.09,10.0,North,11.5,-,N/A,,Clear,10,2013-06-13 05:55:00
1:15 AM,64.6,52.2,64,30.10,10.0,NNE,9.2,-,N/A,,Clear,20,2013-06-13 06:15:00
1:35 AM,63.9,52.0,65,30.10,10.0,NNE,9.2,-,N/A,,Clear,20,2013-06-13 06:35:00
1:55 AM,63.5,52.2,67,30.09,10.0,NNE,8.1,-,N/A,,Clear,20,2013-06-13 06:55:00
2:15 AM,62.8,52.0,68,30.09,10.0,NNE,6.9,-,N/A,,Clear,20,2013-06-13 07:15:00
2:35 AM,61.9,52.2,70,30.09,10.0,NE,4.6,-,N/A,,Clear,40,2013-06-13 07:35:00
2:55 AM,61.3,52.3,72,30.08,10.0,NNE,6.9,-,N/A,,Clear,30,2013-06-13 07:55:00
3:15 AM,61.3,52.3,72,30.08,10.0,NNE,4.6,-,N/A,,Clear,20,2013-06-13 08:15:00
3:35 AM,61.2,52.3,73,30.09,10.0,NNE,4.6,-,N/A,,Clear,20,2013-06-13 08:35:00
3:55 AM,60.6,52.3,74,30.08,10.0,NNE,6.9,-,N/A,,Clear,20,2013-06-13 08:55:00
4:15 AM,60.1,52.3,76,30.08,10.0,North,4.6,-,N/A,,Clear,350,2013-06-13 09:15:00
4:35 AM,59.0,52.3,79,30.09,10.0,North,3.5,-,N/A,,Clear,350,2013-06-13 09:35:00
4:55 AM,58.6,52.2,79,30.10,10.0,WSW,3.5,-,N/A,,Clear,250,2013-06-13 09:55:00
5:15 AM,57.2,52.2,83,30.12,10.0,WSW,4.6,-,N/A,,Clear,250,2013-06-13 10:15:00
5:35 AM,58.1,52.2,81,30.11,10.0,WNW,4.6,-,N/A,,Clear,300,2013-06-13 10:35:00
5:55 AM,57.2,51.8,82,30.12,10.0,NW,3.5,-,N/A,,Clear,310,2013-06-13 10:55:00
6:15 AM,57.2,51.8,82,30.12,10.0,Calm,Calm,-,N/A,,Clear,0,2013-06-13 11:15:00
6:35 AM,56.7,52.3,85,30.13,10.0,Calm,Calm,-,N/A,,Clear,0,2013-06-13 11:35:00
6:55 AM,58.1,52.9,83,30.12,10.0,Calm,Calm,-,N/A,,Clear,0,2013-06-13 11:55:00
7:15 AM,59.9,53.8,80,30.12,10.0,NNE,3.5,-,N/A,,Clear,30,2013-06-13 12:15:00
7:35 AM,61.9,54.3,76,30.12,10.0,NE,6.9,-,N/A,,Clear,50,2013-06-13 12:35:00
7:55 AM,63.5,54.0,71,30.12,10.0,NE,6.9,-,N/A,,Clear,50,2013-06-13 12:55:00
8:15 AM,65.1,54.0,67,30.12,10.0,NE,6.9,-,N/A,,Clear,50,2013-06-13 13:15:00
8:35 AM,67.3,53.6,61,30.13,10.0,ENE,8.1,-,N/A,,Clear,60,2013-06-13 13:35:00
8:55 AM,68.9,53.6,58,30.12,10.0,ENE,11.5,-,N/A,,Clear,60,2013-06-13 13:55:00
9:15 AM,70.0,53.2,55,30.12,10.0,ENE,9.2,-,N/A,,Clear,70,2013-06-13 14:15:00
9:35 AM,70.9,52.5,52,30.13,10.0,East,8.1,-,N/A,,Clear,80,2013-06-13 14:35:00
9:55 AM,72.0,52.2,50,30.13,10.0,East,8.1,-,N/A,,Clear,80,2013-06-13 14:55:00
10:15 AM,73.4,52.9,49,30.12,10.0,ESE,6.9,-,N/A,,Clear,110,2013-06-13 15:15:00
10:35 AM,74.3,52.3,46,30.12,10.0,East,9.2,-,N/A,,Clear,90,2013-06-13 15:35:00
10:55 AM,75.2,53.1,46,30.11,10.0,East,10.4,-,N/A,,Clear,100,2013-06-13 15:55:00
11:15 AM,76.1,52.3,43,30.11,10.0,East,11.5,-,N/A,,Clear,90,2013-06-13 16:15:00
11:35 AM,77.7,52.2,41,30.11,10.0,East,6.9,-,N/A,,Clear,80,2013-06-13 16:35:00
11:55 AM,77.9,51.4,40,30.11,10.0,ESE,6.9,-,N/A,,Clear,110,2013-06-13 16:55:00
12:15 PM,79.2,48.0,33,30.11,10.0,ESE,5.8,-,N/A,Thunderstorm,Clear,110,2013-06-13 17:15:00
12:35 PM,77.7,48.2,35,30.11,10.0,SE,6.9,-,N/A,,Clear,140,2013-06-13 17:35:00
12:55 PM,78.8,50.2,37,30.10,10.0,SE,8.1,-,N/A,,Clear,140,2013-06-13 17:55:00
1:15 PM,78.6,49.5,36,30.08,10.0,SE,9.2,-,N/A,,Clear,130,2013-06-13 18:15:00
1:35 PM,77.0,50.5,39,30.10,10.0,South,3.5,-,N/A,,Clear,170,2013-06-13 18:35:00
1:55 PM,76.1,52.3,43,30.09,10.0,SE,4.6,-,N/A,,Clear,140,2013-06-13 18:55:00
2:15 PM,75.2,56.1,51,30.09,10.0,SE,3.5,-,N/A,Rain-Thunderstorm,Light Thunderstorms and Rain,140,2013-06-13 19:15:00
2:35 PM,77.0,53.6,44,30.08,10.0,East,8.1,-,N/A,Thunderstorm,Clear,100,2013-06-13 19:35:00
2:55 PM,75.6,57.4,53,30.10,10.0,SSW,3.5,-,N/A,Rain-Thunderstorm,Light Thunderstorms and Rain,200,2013-06-13 19:55:00
3:15 PM,76.3,58.8,55,30.08,10.0,SE,3.5,-,N/A,Rain,Light Rain,130,2013-06-13 20:15:00
3:35 PM,78.8,54.5,43,30.08,10.0,ESE,8.1,-,N/A,,Clear,120,2013-06-13 20:35:00
3:55 PM,79.5,54.1,41,30.07,10.0,ENE,9.2,17.3,N/A,,Clear,70,2013-06-13 20:55:00
4:15 PM,80.6,54.5,40,30.06,10.0,ENE,11.5,-,N/A,,Clear,70,2013-06-13 21:15:00
4:35 PM,81.1,52.0,36,30.05,10.0,ESE,12.7,20.7,N/A,,Clear,110,2013-06-13 21:35:00
4:55 PM,80.6,52.7,38,30.04,10.0,East,15.0,21.9,N/A,,Clear,90,2013-06-13 21:55:00
5:15 PM,80.8,51.6,36,30.03,10.0,ESE,12.7,21.9,N/A,,Clear,110,2013-06-13 22:15:00
5:35 PM,81.7,50.5,34,30.02,10.0,ESE,15.0,21.9,N/A,,Clear,110,2013-06-13 22:35:00
5:55 PM,81.5,51.1,35,30.01,10.0,SE,16.1,-,N/A,,Clear,130,2013-06-13 22:55:00
6:15 PM,81.0,51.4,36,30.00,10.0,SE,16.1,20.7,N/A,,Clear,130,2013-06-13 23:15:00
6:35 PM,81.0,52.0,36,30.00,10.0,SE,15.0,19.6,N/A,,Clear,140,2013-06-13 23:35:00
6:55 PM,80.8,52.7,38,29.99,10.0,SSE,16.1,20.7,N/A,,Clear,150,2013-06-13 23:55:00
7:15 PM,79.9,53.6,40,29.98,10.0,SE,16.1,-,N/A,,Clear,140,2013-06-14 00:15:00
7:35 PM,79.5,54.0,41,29.98,10.0,SSE,12.7,-,N/A,,Clear,150,2013-06-14 00:35:00
7:55 PM,78.6,55.2,44,29.97,10.0,South,10.4,-,N/A,,Clear,170,2013-06-14 00:55:00
8:15 PM,77.7,55.2,46,29.98,10.0,South,6.9,-,N/A,,Clear,180,2013-06-14 01:15:00
8:35 PM,76.3,55.6,49,29.99,10.0,South,3.5,-,N/A,,Clear,180,2013-06-14 01:35:00
8:55 PM,75.4,55.9,51,30.00,10.0,Calm,Calm,-,N/A,,Clear,0,2013-06-14 01:55:00
9:15 PM,71.6,57.0,60,30.00,10.0,Calm,Calm,-,N/A,,Clear,0,2013-06-14 02:15:00
9:35 PM,70.0,57.6,65,30.00,10.0,Calm,Calm,-,N/A,,Clear,0,2013-06-14 02:35:00
9:55 PM,69.3,57.9,67,30.00,10.0,ESE,3.5,-,N/A,,Clear,120,2013-06-14 02:55:00
10:15 PM,68.9,57.6,67,30.01,10.0,SE,3.5,-,N/A,,Clear,130,2013-06-14 03:15:00
10:35 PM,68.5,57.9,69,30.00,10.0,ESE,3.5,-,N/A,,Clear,120,2013-06-14 03:35:00
10:55 PM,68.9,57.7,68,30.00,10.0,Calm,Calm,-,N/A,,Clear,0,2013-06-14 03:55:00
11:15 PM,68.0,57.9,70,30.00,10.0,East,3.5,-,N/A,,Clear,90,2013-06-14 04:15:00
11:35 PM,68.2,57.9,70,30.00,10.0,Calm,Calm,-,N/A,,Clear,0,2013-06-14 04:35:00
11:55 PM,67.8,58.1,71,29.99,10.0,East,4.6,-,N/A,,Clear,100,2013-06-14 04:55:00